USA 164 (MILSTAR-2 3)   
1 27168U 02001A   19258.68684208  .00000099  00000-0  00000-0 0  9992
2 27168   8.4926  33.0523 0002872 149.8041  77.7376  1.00270402  8222
TITAN 4 CENTAUR R/B     
1 27169U 02001B   19257.58383486  .00000097  00000-0  00000-0 0  9993
2 27169   6.8384  37.6793 0052046  78.2755 282.4522  1.00195603  1643